Weather History for Sturgeon Bay, WI

Change the Weather History Date:

Wednesday, November 21, 2012

  Actual Average Record
Temperature  
Mean Temperature 42 °F -  
Max Temperature 51 °F 39 °F 89 °F (2003)
Min Temperature 33 °F 27 °F 10 °F (1929)
Degree Days  
Heating Degree Days 23    
Moisture  
Dew Point 40 °F    
Average Humidity 89    
Maximum Humidity 100    
Minimum Humidity 71    
Precipitation  
Precipitation 0.00 in - - ()
Sea Level Pressure  
Sea Level Pressure 30.05 in    
Wind  
Wind Speed 7 mph (South)    
Max Wind Speed 18 mph    
Max Gust Speed 25 mph    
Visibility 3 miles    
Events      
Averages and records for this station are not official NWS values.
T = Trace of Precipitation, MM = Missing Value Source: NWS Daily Summary

Daily Weather History Graph

Daily Weather History Graph

Search for Another Location

Airport:

Trip Planner

Search our weather history database for the weather conditions in past years. The results will help you decide how hot, cold, wet, or windy it might be!

Date:

Astronomy

Nov. 21, 2012 Rise Set
Actual Time 6:55 AM CST 4:15 PM CST
Civil Twilight 6:23 AM CST 4:47 PM CST
Nautical Twilight 5:47 AM CST 5:23 PM CST
Astronomical Twilight 5:12 AM CST 5:58 PM CST
Moon 12:46 PM CST (11/21) No Moon Set
Length of Visible Light 10h 24m
Length of Day
9h 19m
First Quarter, 62% of the Moon is Illuminated
Nov 21
First Quarter
Nov 28
Full
Dec 6
Last Quarter
Dec 13
New
Dec 19
First Quarter

Hourly Weather History & Observations

Time (CST) Temp. Windchill Dew Point Humidity Pressure Visibility Wind Dir Wind Speed Gust Speed Precip Events Conditions
12:15 AM 39.2 °F 37.0 °F 37.4 °F 93% 30.14 in 0.2 mi SSW 3.5 mph - N/A   Overcast
12:35 AM 39.2 °F 35.0 °F 37.4 °F 93% 30.14 in 0.2 mi SE 5.8 mph - N/A   Overcast
12:55 AM 39.2 °F 35.0 °F 37.4 °F 93% 30.15 in 0.2 mi SE 5.8 mph - N/A   Overcast
1:15 AM 39.2 °F 34.2 °F 37.4 °F 93% 30.14 in 0.2 mi SSE 6.9 mph - N/A   Overcast
1:35 AM 39.2 °F 35.0 °F 39.2 °F 100% 30.15 in 0.2 mi SSE 5.8 mph - N/A   Overcast
1:55 AM 39.2 °F 35.0 °F 39.2 °F 100% 30.15 in 0.2 mi SSE 5.8 mph - N/A   Overcast
2:15 AM 39.2 °F 33.6 °F 39.2 °F 100% 30.14 in 0.2 mi SSE 8.1 mph - N/A   Overcast
2:35 AM 39.2 °F 35.0 °F 37.4 °F 93% 30.13 in 0.2 mi South 5.8 mph - N/A   Overcast
2:55 AM 39.2 °F 35.0 °F 37.4 °F 93% 30.13 in 0.2 mi South 5.8 mph - N/A   Overcast
3:15 AM 37.4 °F 32.1 °F 37.4 °F 100% 30.13 in 0.2 mi South 6.9 mph - N/A   Overcast
3:35 AM 37.4 °F 34.9 °F 37.4 °F 100% 30.13 in 0.2 mi SSW 3.5 mph - N/A   Overcast
3:55 AM 37.4 °F 33.8 °F 35.6 °F 93% 30.13 in 0.2 mi South 4.6 mph - N/A   Overcast
4:15 AM 37.4 °F 33.8 °F 35.6 °F 93% 30.13 in 0.2 mi SSE 4.6 mph - N/A   Overcast
4:35 AM 35.6 °F 32.8 °F 35.6 °F 100% 30.14 in 0.2 mi South 3.5 mph - N/A   Overcast
4:55 AM 35.6 °F 32.8 °F 35.6 °F 100% 30.14 in 0.2 mi SSE 3.5 mph - N/A   Overcast
5:15 AM 35.6 °F 32.8 °F 33.8 °F 93% 30.14 in 0.2 mi SSE 3.5 mph - N/A   Overcast
5:35 AM 35.6 °F 32.8 °F 33.8 °F 93% 30.14 in 0.2 mi SE 3.5 mph - N/A   Overcast
5:55 AM 33.8 °F - 33.8 °F 100% 30.14 in 0.2 mi Calm Calm - N/A   Overcast
6:15 AM 33.8 °F 30.8 °F 33.8 °F 100% 30.14 in 0.2 mi SE 3.5 mph - N/A   Overcast
6:35 AM 33.8 °F 29.6 °F 32.0 °F 93% 30.13 in 0.2 mi SSE 4.6 mph - N/A   Overcast
6:55 AM 33.8 °F - 33.8 °F 100% 30.14 in 0.2 mi Calm Calm - N/A   Overcast
7:15 AM 33.8 °F - 32.0 °F 93% 30.13 in 0.2 mi Calm Calm - N/A   Overcast
7:35 AM 33.8 °F 30.8 °F 32.0 °F 93% 30.13 in 0.2 mi South 3.5 mph - N/A   Overcast
7:55 AM 33.8 °F 29.6 °F 33.8 °F 100% 30.14 in 0.2 mi South 4.6 mph - N/A   Overcast
8:15 AM 35.6 °F 30.7 °F 35.6 °F 100% 30.14 in 0.5 mi South 5.8 mph - N/A   Overcast
8:35 AM 37.4 °F 32.1 °F 35.6 °F 93% 30.13 in 1.0 mi South 6.9 mph - N/A   Mostly Cloudy
8:55 AM 39.2 °F 33.6 °F 39.2 °F 100% 30.13 in 1.8 mi South 8.1 mph - N/A   Clear
9:15 AM 42.8 °F 38.0 °F 41.0 °F 93% 30.13 in 2.0 mi South 8.1 mph - N/A   Clear
9:35 AM 42.8 °F 38.0 °F 41.0 °F 93% 30.13 in 2.5 mi South 8.1 mph - N/A   Clear
9:55 AM 44.6 °F 40.2 °F 44.6 °F 100% 30.12 in 3.0 mi South 8.1 mph - N/A   Clear
10:15 AM 46.4 °F 42.4 °F 44.6 °F 93% 30.11 in 5.0 mi South 8.1 mph - N/A   Clear
10:35 AM 48.2 °F - 44.6 °F 87% 30.11 in 5.0 mi South 10.4 mph - N/A   Clear
11:15 AM 51.8 °F - 44.6 °F 76% 30.09 in 7.0 mi South 11.5 mph 18.4 mph N/A   Clear
11:35 AM 51.8 °F - 44.6 °F 76% 30.08 in 8.0 mi SSW 12.7 mph 16.1 mph N/A   Clear
11:55 AM 51.8 °F - 44.6 °F 76% 30.06 in 7.0 mi South 12.7 mph - N/A   Clear
12:15 PM 51.8 °F - 44.6 °F 76% 30.06 in 7.0 mi South 10.4 mph - N/A   Clear
12:35 PM 51.8 °F - 44.6 °F 76% 30.05 in 6.0 mi South 11.5 mph - N/A   Clear
12:55 PM 51.8 °F - 44.6 °F 76% 30.04 in 5.0 mi SSE 15.0 mph 19.6 mph N/A   Clear
1:15 PM 51.8 °F - 42.8 °F 71% 30.02 in 6.0 mi South 18.4 mph - N/A   Clear
1:35 PM 50.0 °F - 42.8 °F 76% 30.01 in 5.0 mi South 15.0 mph - N/A   Clear
1:55 PM 50.0 °F - 42.8 °F 76% 30.00 in 5.0 mi South 18.4 mph 21.9 mph N/A   Clear
2:15 PM 50.0 °F - 42.8 °F 76% 29.99 in 4.0 mi South 16.1 mph - N/A   Clear
2:35 PM 48.2 °F - 42.8 °F 82% 30.00 in 4.0 mi South 17.3 mph 23.0 mph N/A   Clear
2:55 PM 48.2 °F - 42.8 °F 82% 29.99 in 4.0 mi South 15.0 mph 25.3 mph N/A   Clear
3:15 PM 48.2 °F - 42.8 °F 82% 29.98 in 4.0 mi South 18.4 mph 24.2 mph N/A   Clear
3:35 PM 46.4 °F 39.5 °F 42.8 °F 87% 29.98 in 4.0 mi South 17.3 mph 25.3 mph N/A   Clear
3:55 PM 46.4 °F 39.5 °F 42.8 °F 87% 29.98 in 3.0 mi South 17.3 mph 23.0 mph N/A   Clear
4:15 PM 46.4 °F 39.2 °F 42.8 °F 87% 29.97 in 2.5 mi South 18.4 mph 24.2 mph N/A   Clear
4:35 PM 46.4 °F 39.8 °F 42.8 °F 87% 29.97 in 2.5 mi South 16.1 mph 23.0 mph N/A   Clear
4:55 PM 46.4 °F 39.8 °F 42.8 °F 87% 29.97 in 3.0 mi South 16.1 mph 23.0 mph N/A   Clear
5:15 PM 46.4 °F 40.4 °F 42.8 °F 87% 29.96 in 4.0 mi South 13.8 mph 19.6 mph N/A   Clear
5:35 PM 46.4 °F 40.7 °F 42.8 °F 87% 29.97 in 4.0 mi South 12.7 mph - N/A   Clear
5:55 PM 46.4 °F 40.1 °F 42.8 °F 87% 29.97 in 3.0 mi South 15.0 mph - N/A   Clear
6:15 PM 46.4 °F 41.1 °F 42.8 °F 87% 29.97 in 3.0 mi South 11.5 mph - N/A   Clear
6:35 PM 44.6 °F 38.8 °F 42.8 °F 93% 29.97 in 3.0 mi South 11.5 mph - N/A   Clear
6:55 PM 44.6 °F 39.7 °F 42.8 °F 93% 29.97 in 3.0 mi South 9.2 mph - N/A   Clear
7:15 PM 44.6 °F 39.7 °F 42.8 °F 93% 29.96 in 3.0 mi South 9.2 mph - N/A   Clear
7:35 PM 44.6 °F 39.7 °F 41.0 °F 87% 29.97 in 4.0 mi South 9.2 mph - N/A   Clear
7:55 PM 44.6 °F 40.7 °F 41.0 °F 87% 29.97 in 4.0 mi South 6.9 mph - N/A   Clear
8:15 PM 44.6 °F 40.7 °F 41.0 °F 87% 29.96 in 4.0 mi South 6.9 mph - N/A   Clear
8:35 PM 44.6 °F 40.2 °F 41.0 °F 87% 29.96 in 4.0 mi South 8.1 mph - N/A   Clear
8:55 PM 44.6 °F 41.4 °F 39.2 °F 81% 29.96 in 4.0 mi South 5.8 mph - N/A   Clear
9:15 PM 44.6 °F 40.7 °F 39.2 °F 81% 29.95 in 5.0 mi South 6.9 mph - N/A   Clear
9:35 PM 44.6 °F 40.7 °F 39.2 °F 81% 29.95 in 5.0 mi South 6.9 mph - N/A   Clear
9:55 PM 44.6 °F 40.7 °F 39.2 °F 81% 29.94 in 5.0 mi SSE 6.9 mph - N/A   Clear
10:15 PM 44.6 °F 41.4 °F 39.2 °F 81% 29.94 in 5.0 mi South 5.8 mph - N/A   Clear
10:35 PM 44.6 °F 42.2 °F 39.2 °F 81% 29.94 in 5.0 mi SSE 4.6 mph - N/A   Clear
10:55 PM 42.8 °F 39.3 °F 39.2 °F 87% 29.93 in 5.0 mi South 5.8 mph - N/A   Clear
11:15 PM 42.8 °F 38.6 °F 39.2 °F 87% 29.93 in 5.0 mi SSE 6.9 mph - N/A   Clear
11:35 PM 42.8 °F 38.6 °F 39.2 °F 87% 29.93 in 5.0 mi SSE 6.9 mph - N/A   Clear
11:55 PM 42.8 °F 40.1 °F 39.2 °F 87% 29.93 in 5.0 mi SSE 4.6 mph - N/A   Clear